www.pogodaiklimat.ru

Погода и климат >> Архив погоды >> Финляндия >> Орренгрунд


ПОГОДА в Орренгрунде

  • Прогноз погоды в Орренгрунде
  • Монитор погоды в Орренгрунде

АРХИВ ПОГОДЫ в Орренгрунде

Время (UTC), дата Ветер
(напр.,м/с)
 
Видим.   Явления Облачность Т
(С)
Тd
(С)
f
(%)
Тe
(С)
Тes
(С)
Комфортность P
(гПа)
Po
(гПа)
Тmin
(С)
Tmax
(С)
R
(мм)
R24
(мм)
S
(см)
22 12.08 ЮЗ 5 17 км 4/0
[]
+16.2 +14.5 90 +15 +15 1010.0 1009.6
23 12.08 ЮЗ 5 20 км 4/0
[]
+16.3 +14.8 91 +15 +15 1010.0 1009.6
00 13.08 ЮЗ 4-7
{7}
20 км 9/0
[]
+16.6 +15.5 93 +16 +16 1010.0 1009.5
01 13.08 ЮЗ 4-4
{6}
20 км 1/0
[]
+16.0 +15.0 94 +15 +15 1009.3 1008.9
02 13.08 ЮЗ 5 20 км 1/0
[]
+16.1 +14.7 91 +15 +15 1009.2 1008.8
03 13.08 ЮЗ 4-7
{7}
20 км 9/0
[]
+15.8 +14.2 90 +15 +15 1008.7 1008.3
04 13.08 ЮЗ 5 20 км 9/0
[]
+15.6 +14.1 91 +14 +15 1009.0 1008.6
05 13.08 ЮЗ 4-5
{9}
20 км 9/0
[]
+15.9 +14.0 88 +15 +16 1008.7 1008.3
06 13.08 ЮЗ 5-6
{7}
20 км 9/0
[]
+16.3 +14.4 89 +15 +16 1009.0 1008.6 +15.6 +17.1
07 13.08 ЮЗ 3 20 км 9/0
[]
+17.5 +14.9 85 +18 +20 1008.9 1008.4
08 13.08 ЮЗ 4-5
{6}
20 км 9/0
[]
+16.9 +15.0 89 +16 +19 1009.0 1008.6
09 13.08 ЮЗ 4-6
{6}
20 км 9/0
[]
+18.2 +14.9 81 +18 +22 1008.5 1008.1
10 13.08 ЮЗ 4 20 км 9/0
[]
+18.7 +14.5 77 +19 +23 1008.3 1007.9
11 13.08 Ю 4 20 км ясно +18.5 +14.7 79 +19 +26 1007.9 1007.5
12 13.08 Ю 5-7
{8}
20 км 1/0
[]
+18.9 +15.1 79 +20 +24 1008.0 1007.5
13 13.08 ЮЗ 5 20 км ясно +19.0 +14.7 76 +20 +24 1007.8 1007.3
14 13.08 Ю 5 20 км ясно +18.2 +14.8 81 +18 +21 1007.3 1006.9
15 13.08 Ю 5-5
{7}
20 км ясно +18.0 +15.6 86 +18 +19 1007.3 1006.9
16 13.08 Ю 5 20 км ясно +18.0 +16.0 88 +18 +18 1007.2 1006.8
17 13.08 Ю 3 20 км 1/0
[]
+18.1 +16.3 89 +18 +19 1007.2 1006.8
18 13.08 ЮЗ 4-6
{7}
20 км 3/0
[]
+17.8 +15.6 87 +18 +18 1007.2 1006.8 +16.1 +19.2
19 13.08 ЮЗ 5 20 км ясно +17.5 +15.2 86 +17 +17 1007.0 1006.6
20 13.08 ЮЗ 5 20 км 6/0
[]
+17.3 +15.3 88 +17 +17 1007.2 1006.8
21 13.08 ЮЗ 6-10
{10}
20 км 1/0
[]
+17.4 +14.1 81 +17 +17 1007.5 1007.1
22 13.08 ЮЗ 6 4400 м дымка 6/0
[]
+17.4 +14.3 82 +17 +17 1007.6 1007.2
23 13.08 ЮЗ 5 20 км ясно +17.2 +14.4 84 +17 +17 1007.5 1007.1
00 14.08 ЮЗ 6-9
{10}
15 км 3/0
[]
+16.9 +14.8 87 +16 +16 1007.6 1007.1
01 14.08 ЮЗ 6 18 км ясно +16.7 +14.6 87 +16 +16 1007.3 1006.9
02 14.08 Ю 7-9
{9}
17 км ясно +16.5 +14.7 89 +15 +15 1007.0 1006.6
03 14.08 ЮЗ 7-9
{9}
17 км 8/0
[]
+16.6 +15.0 90 +15 +15 1006.9 1006.5
04 14.08 Ю 8 20 км 1/0
[]
+16.6 +14.9 90 +15 +15 1006.8 1006.4
05 14.08 ЮЗ 7 20 км 6/0
[]
+16.6 +14.6 88 +15 +16 1006.9 1006.5
06 14.08 ЮЗ 7-10
{10}
20 км 9/0
[]
+17.2 +14.6 85 +16 +17 1007.0 1006.6 +16.3 +17.8
07 14.08 ЮЗ 7-11
{12}
20 км 9/0
[]
+17.6 +14.8 84 +17 +18 1006.8 1006.4
08 14.08 ЮЗ 8-11
{12}
20 км слаб. ливневой дождь 8/0
[]
+17.6 +14.1 80 +17 +18 1007.0 1006.5
09 14.08 ЮЗ 7-11
{13}
20 км в посл. час дождь 3/0
[]
+18.2 +14.4 78 +18 +20 1007.1 1006.7
10 14.08 ЮЗ 8 20 км 6/0
[]
+18.8 +13.9 73 +19 +20 1007.4 1007.0
11 14.08 ЮЗ 8 20 км ясно +18.9 +14.1 74 +19 +21 1007.6 1007.2
12 14.08 ЮЗ 9-12
{13}
13 км ясно +19.2 +13.6 70 +20 +21 1007.7 1007.3
13 14.08 ЮЗ 8 12 км ясно +18.9 +11.8 63 +19 +20 1007.9 1007.4
14 14.08 ЮЗ 7-11
{12}
13 км ясно +18.8 +13.0 69 +19 +20 1007.9 1007.5
15 14.08 ЮЗ 8-11
{13}
16 км ясно +18.3 +12.4 68 +18 +18 1008.0 1007.6
16 14.08 ЮЗ 8 15 км ясно +18.1 +12.3 69 +17 +18 1007.9 1007.5
17 14.08 ЮЗ 9 6000 м дым ясно +17.3 +12.2 72 +16 +16 1007.9 1007.5
18 14.08 З 7-11
{13}
5000 м дым ясно +16.7 +12.4 76 +15 +15 1008.0 1007.5 +15.6 +19.4
19 14.08 З 7 4700 м дым ясно +16.4 +12.1 76 +15 +15 1007.9 1007.5
20 14.08 З 6 6000 м дым ясно +16.2 +11.6 74 +15 +15 1007.7 1007.2
21 14.08 З 6-10
{11}
8000 м дым ясно +16.0 +10.9 72 +15 +15 1007.8 1007.3
22 14.08 З 5 20 км ясно +16.0 +11.3 74 +15 +15 1007.8 1007.4
23 14.08 ЮЗ 5-8
{8}
20 км 5/0
[]
+15.9 +11.9 77 +15 +15 1007.6 1007.2
00 15.08 ЮЗ 5-8
{11}
20 км 5/0
[]
+15.8 +12.5 81 +15 +15 1007.5 1007.0
01 15.08 ЮЗ 7 20 км 3/0
[]
+15.7 +13.0 84 +14 +14 1007.2 1006.8
02 15.08 ЮЗ 7-11
{11}
20 км в посл. час дождь 5/0
[]
+15.7 +13.5 87 +14 +14 1007.2 1006.8
03 15.08 ЮЗ 6-9
{10}
19 км в посл. час дождь 6/0
[]
+15.8 +13.9 88 +14 +14 1006.7 1006.3
04 15.08 ЮЗ 8-12
{12}
20 км 1/0
[]
+15.9 +13.7 87 +14 +14 1006.8 1006.4
05 15.08 ЮЗ 6 15 км дождь 9/0
[]
+14.1 +10.2 77 +12 +13 1007.2 1006.8
06 15.08 ЮЗ 6-10
{10}
20 км в посл. час дождь ясно +16.4 +11.4 72 +15 +17 1007.0 1006.5 +13.7 +16.7
07 15.08 ЮЗ 9 20 км 3/0
[]
+16.5 +12.2 76 +15 +15 1007.2 1006.7
08 15.08 ЮЗ 8 11 км дождь 9/0
[]
+14.2 +12.0 87 +12 +13 1007.1 1006.7
09 15.08 ЮЗ 8 20 км 1/0
[]
+16.8 +12.3 75 +15 +17 1006.9 1006.5
10 15.08 ЮЗ 8 20 км 3/0
[]
+17.2 +12.6 74 +16 +18 1007.1 1006.7
11 15.08 ЮЗ 7-10
{10}
20 км 1/0
[]
+17.6 +12.1 70 +17 +19 1007.6 1007.1
12 15.08 ЮЗ 7-10
{11}
20 км ясно +17.7 +12.5 72 +17 +19 1008.0 1007.6
13 15.08 ЮЗ 8 20 км ясно +17.7 +12.6 72 +17 +18 1008.2 1007.8
14 15.08 ЮЗ 8-12
{14}
20 км ясно +18.0 +12.6 71 +17 +18 1008.7 1008.3
15 15.08 ЮЗ 9-13
{14}
20 км ясно +17.4 +13.0 75 +16 +16 1008.9 1008.5
16 15.08 ЮЗ 9 20 км ясно +17.1 +12.4 74 +16 +16 1009.1 1008.6
17 15.08 ЮЗ 8-12
{13}
20 км ясно +16.3 +12.8 80 +15 +15 1009.5 1009.1
18 15.08 ЮЗ 7-11
{13}
20 км ясно +15.8 +12.5 81 +14 +14 1010.3 1009.9 +13.8 +18.1
19 15.08 ЮЗ 6-10
{11}
20 км ясно +15.5 +12.4 82 +14 +14 1010.8 1010.4
20 15.08 З 5-7
{9}
20 км ясно +15.3 +12.8 85 +14 +14 1011.4 1011.0
21 15.08 З 4-7
{8}
20 км ясно +15.2 +12.5 84 +14 +14 1012.2 1011.8
22 15.08 З 4 20 км ясно +15.3 +11.2 77 +14 +14 1012.5 1012.1
23 15.08 З 5 20 км ясно +15.1 +10.9 76 +14 +14 1013.0 1012.5
00 16.08 З 3-5
{6}
20 км ясно +14.5 +11.6 83 +14 +14 1013.3 1012.9
01 16.08 ЮЗ 3 20 км ясно +14.0 +11.9 87 +13 +13 1013.5 1013.0
02 16.08 ЮЗ 3-5
{5}
20 км ясно +13.8 +12.5 92 +13 +13 1013.6 1013.1
03 16.08 ЮЗ 4-5
{5}
19 км ясно +14.2 +13.3 94 +13 +13 1013.9 1013.4
04 16.08 ЮЗ 4 20 км ясно +15.2 +13.0 87 +14 +15 1014.0 1013.6
05 16.08 ЮЗ 3-6
{6}
20 км ясно +16.0 +13.0 82 +16 +17 1014.4 1014.0
06 16.08 ЮЗ 5-7
{8}
11 км ясно +16.7 +14.2 85 +16 +18 1014.7 1014.3 +13.5 +16.8
07 16.08 ЮЗ 5 20 км ясно +17.1 +14.2 83 +16 +20 1015.0 1014.5
08 16.08 ЮЗ 5 20 км ясно +18.3 +14.8 80 +18 +23 1015.0 1014.6
09 16.08 ЮЗ 4-7
{8}
20 км ясно +18.5 +14.5 78 +19 +25 1015.3 1014.9
10 16.08 ЮЗ 4-6
{8}
20 км 8/0
[]
+18.1 +14.6 80 +18 +23 1015.5 1015.1
11 16.08 ЮЗ 5 20 км ясно +18.7 +14.8 78 +19 +24 1015.4 1015.0
12 16.08 ЮЗ 5-6
{7}
20 км ясно +18.2 +14.8 81 +18 +23 1015.7 1015.2
13 16.08 ЮЗ 4 20 км 9/0
[]
+17.9 +14.7 82 +18 +20 1015.5 1015.1
14 16.08 ЮЗ 4 20 км 9/0
[]
+18.6 +14.2 76 +19 +21 1015.5 1015.1
15 16.08 ЮЗ 4-7
{8}
20 км 6/0
[]
+18.7 +14.1 75 +19 +21 1015.5 1015.1
16 16.08 ЮЗ 4 20 км 8/0
[]
+17.6 +14.5 82 +17 +18 1015.4 1015.0
17 16.08 ЮЗ 4-5
{6}
20 км 5/0
[]
+17.1 +14.4 84 +17 +17 1015.6 1015.2
18 16.08 Ю 3-4
{5}
20 км 4/0
[]
+16.1 +14.6 91 +16 +16 1015.9 1015.4 +16.1 +19.3
19 16.08 Ю 3 20 км 5/0
[]
+15.4 +14.5 94 +15 +15 1015.9 1015.4
20 16.08 Ю 4-5
{5}
20 км ясно +16.3 +15.1 93 +16 +16 1015.9 1015.5
21 16.08 Ю 4-5
{5}
20 км 1/0
[]
+16.4 +14.8 90 +16 +16 1016.0 1015.6
22 16.08 Ю 5 20 км 10/0
[]
+16.7 +14.6 87 +16 +16 1016.0 1015.6
23 16.08 Ю 5 20 км 10/0
[]
+16.5 +15.4 93 +16 +16 1016.1 1015.7
00 17.08 Ю 6-6
{6}
20 км 10/0
[]
+16.7 +15.3 91 +16 +16 1016.1 1015.7
01 17.08 Ю 6 16 км в посл. час туман 9/0
[]
+16.6 +15.2 91 +15 +15 1016.0 1015.5
02 17.08 Ю 6-7
{7}
18 км 9/0
[]
+16.8 +14.6 87 +16 +16 1015.8 1015.4
03 17.08 Ю 7-8
{8}
17 км 8/0
[]
+16.7 +14.5 87 +15 +15 1015.7 1015.3
04 17.08 Ю 8 15 км ясно +16.7 +14.1 85 +15 +15 1015.7 1015.2
05 17.08 Ю 7 20 км 5/0
[]
+17.0 +14.2 84 +16 +16 1015.6 1015.2
06 17.08 Ю 7-8
{9}
20 км 9/0
[]
+17.1 +14.1 83 +16 +17 1015.7 1015.2 +15.4 +17.2
07 17.08 Ю 7-8
{9}
20 км 8/0
[]
+17.7 +14.3 80 +17 +18 1015.8 1015.4
08 17.08 Ю 7 20 км 3/0
[]
+18.0 +14.4 79 +17 +19 1015.9 1015.5
09 17.08 Ю 5-6
{8}
20 км ясно +18.2 +14.8 81 +18 +23 1016.0 1015.6
10 17.08 Ю 5 20 км ясно +18.8 +15.4 81 +20 +25 1016.0 1015.6
11 17.08 Ю 6 20 км 6/0
[]
+18.8 +15.4 81 +19 +22 1015.9 1015.5
12 17.08 Ю 5-6
{7}
15 км 3/0
[]
+19.2 +15.5 79 +20 +24 1015.5 1015.1
13 17.08 Ю 4 8000 м дым 1/0
[]
+19.0 +15.5 80 +20 +25 1015.3 1014.9
14 17.08 Ю 7 17 км ясно +18.8 +15.4 81 +19 +21 1015.1 1014.6
15 17.08 Ю 8-9
{9}
15 км 4/0
[]
+18.5 +15.5 83 +18 +19 1014.7 1014.3
16 17.08 Ю 8 13 км ясно +18.4 +15.3 82 +18 +18 1014.5 1014.1
17 17.08 Ю 7-9
{9}
13 км ясно +18.1 +15.3 84 +18 +18 1014.6 1014.2
18 17.08 Ю 8-9
{9}
20 км ясно +17.9 +15.4 85 +17 +17 1014.8 1014.3 +17.0 +20.1
19 17.08 Ю 7 19 км 9/0
[]
+17.9 +15.5 86 +17 +17 1014.8 1014.4
20 17.08 Ю 7 19 км 10/0
[]
+18.0 +14.9 82 +17 +17 1014.7 1014.3
21 17.08 ЮВ 7-9
{9}
12 км 10/0
[]
+17.7 +15.4 86 +17 +17 1014.6 1014.1
22 17.08 Ю 8 12 км 10/0
[]
+17.7 +14.8 83 +17 +17 1014.6 1014.2
23 17.08 Ю 7 17 км ясно +17.4 +14.8 85 +16 +16 1014.5 1014.1
00 18.08 Ю 7-8
{9}
18 км ясно +17.3 +15.0 86 +16 +16 1014.6 1014.1
01 18.08 Ю 7 12 км ясно +17.1 +14.9 87 +16 +16 1014.4 1014.0
02 18.08 Ю 8 11 км ясно +17.0 +15.1 89 +16 +16 1014.2 1013.7
03 18.08 Ю 7-8
{10}
13 км ясно +16.9 +14.8 87 +16 +16 1014.1 1013.6
04 18.08 Ю 7 8000 м дымка ясно +17.0 +14.8 87 +16 +16 1014.1 1013.6
05 18.08 Ю 7 5000 м дымка ясно +17.5 +14.7 84 +17 +17 1014.0 1013.6
06 18.08 ЮВ 7-8
{9}
13 км ясно +17.7 +14.8 83 +17 +18 1013.9 1013.5 +16.9 +18.3
07 18.08 ЮВ 6 13 км ясно +18.1 +14.5 79 +18 +20 1013.9 1013.5
08 18.08 ЮВ 6-8
{8}
14 км ясно +18.4 +14.1 76 +18 +21 1013.8 1013.4
09 18.08 ЮВ 6-7
{8}
14 км ясно +19.0 +13.6 71 +20 +23 1013.8 1013.4
10 18.08 ЮВ 5 17 км ясно +19.2 +13.3 69 +20 +25 1013.7 1013.2
11 18.08 ЮВ 3 19 км ясно +19.2 +14.1 72 +21 +29 комфорт 1013.5 1013.1
12 18.08 В 6-7
{7}
14 км ясно +19.4 +14.6 74 +21 +24 комфорт 1013.1 1012.7
13 18.08 В 5-7
{7}
18 км 8/0
[]
+18.5 +15.3 82 +19 +21 1013.0 1012.5
14 18.08 В 6-7
{8}
15 км ясно +18.8 +15.5 81 +19 +21 1012.7 1012.3
15 18.08 ЮВ 5-7
{9}
18 км ясно +18.6 +15.2 81 +19 +20 1012.5 1012.0
16 18.08 В 6 17 км ясно +18.2 +15.2 83 +18 +18 1011.8 1011.4
17 18.08 ЮВ 5 20 км ясно +18.1 +14.9 82 +18 +18 1011.9 1011.5
18 18.08 ЮВ 6-9
{9}
20 км 1/0
[]
+18.4 +14.6 79 +18 +18 1011.7 1011.3 +17.7 +19.4
19 18.08 ЮВ 6-9
{9}
20 км ясно +18.4 +14.2 77 +18 +18 1011.0 1010.6
20 18.08 ЮВ 7 20 км ясно +18.5 +14.3 77 +18 +18 1011.0 1010.6
21 18.08 ЮВ 6-8
{9}
20 км ясно +18.3 +14.7 80 +18 +18 1010.6 1010.2
22 18.08 ЮВ 8 20 км ясно +18.3 +15.2 82 +18 +18 1010.2 1009.8
23 18.08 ЮВ 8-9
{10}
20 км ясно +17.9 +15.2 84 +17 +17 1010.2 1009.8
00 19.08 ЮВ 8-9
{9}
20 км 8/0
[]
+17.9 +15.2 84 +17 +17 1009.5 1009.1
01 19.08 ЮВ 8-10
{11}
20 км 8/0
[]
+17.9 +15.3 85 +17 +17 1009.1 1008.6
02 19.08 ЮВ 10 20 км 9/0
[]
+17.9 +15.2 84 +17 +17 1008.4 1008.0
03 19.08 ЮВ 10-12
{13}
20 км 9/0
[]
+17.7 +15.6 88 +16 +16 1007.9 1007.4
04 19.08 ЮВ 10 18 км слаб. дождь 9/0
[]
+17.5 +15.5 88 +16 +16 1007.7 1007.3
05 19.08 ЮВ 10 11 км слаб. дождь 10/0
[]
+17.1 +15.8 92 +16 +16 1007.4 1007.0
06 19.08 Ю 10-12
{12}
18 км 10/0
[]
+17.4 +15.4 88 +16 +16 1006.7 1006.3 +16.9 +18.5
07 19.08 Ю 10 15 км слаб. дождь 9/0
[]
+17.4 +15.4 88 +16 +16 1007.3 1006.9
08 19.08 Ю 8-10
{12}
20 км в посл. час дождь 10/0
[]
+17.4 +15.4 88 +16 +17 1007.3 1006.9
09 19.08 Ю 8-9
{11}
13 км слаб. ливневой дождь 10/0
[]
+17.2 +15.8 91 +16 +17 1007.2 1006.8
10 19.08 Ю 8-8
{10}
20 км в посл. час дождь 9/0
[]
+17.6 +15.6 88 +17 +18 1007.2 1006.8
11 19.08 Ю 8 9000 м слаб. дождь 10/0
[]
+17.4 +15.9 91 +16 +17 1007.8 1007.4
12 19.08 Ю 6-8
{11}
14 км в посл. час дождь 9/0
[]
+17.8 +16.9 94 +17 +19 1008.6 1008.2
13 19.08 ЮЗ 6 20 км 10/0
[]
+18.4 +16.9 91 +18 +20 1008.9 1008.5
14 19.08 ЮЗ 6 20 км 1/0
[]
+18.5 +15.2 81 +19 +20 1009.4 1009.0
15 19.08 ЮЗ 7-11
{12}
20 км 6/0
[]
+18.3 +15.2 82 +18 +18 1010.2 1009.8
16 19.08 ЮЗ 8 20 км 5/0
[]
+17.6 +14.9 84 +17 +17 1010.7 1010.3
17 19.08 ЮЗ 8 20 км ясно +17.2 +14.7 85 +16 +16 1011.6 1011.2
18 19.08 ЮЗ 5-9
{12}
20 км 6/0
[]
+16.7 +14.9 89 +16 +16 1012.0 1011.6 +16.7 +18.8
19 19.08 ЮЗ 7 20 км 1/0
[]
+16.7 +14.9 89 +15 +15 1012.3 1011.9
20 19.08 ЮЗ 6-9
{11}
20 км ясно +16.4 +14.7 90 +15 +15 1012.8 1012.4
21 19.08 ЮЗ 7-10
{10}
20 км ясно +16.2 +14.4 89 +15 +15 1013.5 1013.1
22 19.08 ЮЗ 6 20 км ясно +16.1 +14.5 90 +15 +15 1013.8 1013.4

 

Местоположение метеостанции Орренгрунд (Финляндия): широта 60.27 долгота 26.44 высота над уровнем моря 5 м.

В архиве по умолчанию представлена погода в Орренгрунде за последнюю неделю. Архивные данные за месяц целиком и за предыдущие месяцы, начиная с января 2011 года, Вы можете получить, выбрав интересующий диапазон дат из раскрывающегося списка и нажав кнопку "Ввод!".


*Определитесь, кто Вы:
робот инопланетянин человек

Внимание! Время в таблицах - всемирное. Для получения местного времени необходимо прибавить поправку, которая равна 1 ч.

Смотрите также архив погоды в соседних городах и на ближайших метеорологических станциях:

Погода на Острове Ранкки (Финляндия) (31 км)
Погода в Гогланде (Ленинградская область, Россия) (37 км)
Погода в Котка Хаапасари (Финляндия) (41 км)
Погода на Эмасало (Финляндия) (45 км)
Погода в Порвоо (Финляндия) (48 км)
Погода в Килпилахти (Финляндия) (49 км)
Погода в Аньяла (Финляндия) (52 км)
Погода на Маяке Kalbadagrund (Финляндия) (56 км)
Погода в Коивуниеми (Финляндия) (74 км)
Погода в Утти Lentoportintie (Финляндия) (74 км)

Пояснения к столбцам:

Ветер - указаны скорость ветра в м/с - средняя за 10 мин, порывы в срок и между сроками (в фигурных скобках) и направление, откуда дует ветер: С - северный, СВ - северо-восточный, В - восточный, ЮВ - юго-восточный, Ю - южный, ЮЗ - юго-западный, З - западный, СЗ - северо-западный.
Видимость - горизонтальная дальность видимости в метрах или километрах. При видимости от 1 до 10 км при отсутствии осадков обычно наблюдается дымка, при ухудшении видимости до 1 км и менее - туман. В сухую погоду видимость может ухудшаться дымом, пылью или мглою.
Явления - указаны атмосферные явления, наблюдавшиеся в срок или в последний час перед сроком; фигурными скобками обозначены явления, наблюдавшиеся между сроками (за 1-3 часа до срока); квадратными скобками обозначены град или гололедные отложения с указанием их диаметра в мм.
Облачность - указаны через наклонную черту общая и нижняя облачность в баллах и высота нижней границы облаков в метрах; квадратными скобками обозначены формы облаков: Ci - перистые, Cs - перисто-слоистые, Cc - перисто-кучевые, Ac - высококучевые, As - высокослоистые, Sc - слоисто-кучевые, Ns - слоисто-дождевые, Cu - кучевые, Cb - кучево-дождевые. Подробнее классификацию облаков см. в Атласе облаков (PDF).
T - Температура воздуха - температура, измеренная на высоте 2 м над землей.
Td - Температура точки росы - температура, при понижении до которой содержащийся в воздухе водяной пар достигнет насыщения.
f - Относительная влажность воздуха - влажноcть воздуха, измеренная на высоте 2 м над землей.
Te - Эффективная температура - температура, которую ощущает одетый по сезону человек в тени. Характеристика душности погоды. При расчете учитывается влияние влажности воздуха и скорости ветра на теплоощущения человека.
Tes - Эффективная температура на солнце - температура, которую ощущает человек, с поправкой на солнечный нагрев. Характеристика знойности погоды. Зависит от высоты солнца над горизонтом, облачности и скорости ветра. Ночью, в пасмурную погоду, а также при ветре 12 м/с и более поправка равна нулю.
P - Атмосферное давление - приведенное к уровню моря атмосферное давление.
Po - Атмосферное давление - измеренное на уровне метеостанции атмосферное давление.
Tmin - Минимальная температура - минимум температуры воздуха на высоте 2 м над землей.
Tmax - Максимальная температура - максимум температуры воздуха на высоте 2 м над землей.
R - Количество осадков - Количество выпавших осадков за период времени, мм. При наведении курсора мыши на число - период времени, за который выпало указанное количество осадков.
R24 - Количество осадков - Количество выпавших осадков за 24 часа, мм.
S - Снежный покров - Высота снежного покрова, см. При наведении курсора мыши на число - состояние снежного покрова и степень покрытия местности в баллах.